STARLINK-1694, 46544

Orbit data source: Space-Track

STARLINK-1694, 46544 is a payload satellite owned by SpaceX/Seattle (US) in LEO that was launched on Tue, 06 Oct 2020 UTC via an FALCON 9 launch vehicle from the Air Force Eastern Test Range (AFETR). Payloads include a variety of satellites, spacecraft, and rockets equipped with specific instruments for various scientific and technological missions. These include communications satellites like Starlink; space stations such as the ISS; scientific satellites like the Hubble; Earth observation satellites from companies like Planet Labs, Umbra, and HawkEye 360; GPS; miniature CubeSats for education and research; and military/defense satellites.

Loading next visibility...
STARLINK-1694 details
Identifier
46544, 2020-070N
Orbit
LEO
Last TLE update12 hours ago
Origin
Flag of USSpaceX/Seattle (US)
ManufacturerSpaceX/Seattle
MissionPartially operational Commercial Communications
Bus & MotorSTARLINK, Unknown motor
Mass260 kg wet, ~248 kg dry
Launch date (UTC)
2020-10-06 (4 years ago)
Launch vehicle
FALCON 9
Launch site
Air Force Eastern Test Range (AFETR)
Object type
Payload
Rocket body
Debris
Shape & HBRBox + 1 Pan, 8.86 m
Radar Cross Section13.562 m², Large (>1 m²)

Expand to show TLE details & history

TLE from 12 hours ago
0 STARLINK-1694
1 46544U 20070N   24346.40765632  .00092169  00000-0  28101-2 0  9995
2 46544  53.0533  31.4859 0009745  19.4124 340.7246 15.33159506231460
Epoch: 2024-12-11T09:47Z
Definitive object data (Epoch: 2024-12-11T09:47:01.506Z)
Latitude
Longitude164.12685°
Altitude460.987 km
Speed7.641 km/s
True Right ascension02h 05m 56s
True Declination0° 00' 00"
Sunlit
Object was in full shadow at TLE epoch
Visualization TLE readout
Latitude-35.52109°
Longitude129.45566°
Altitude474.854 km
Speed7.63 km/s
Apparent Right ascension03h 36m 10s
Apparent Declination-61° 10' 23"
Sunlit
Object is in daylight
Visualization observer readout
Local Sidereal Time20:29:50
Azimuth141.628° SSE
Elevation-41.89°
Doppler factor1
Orbital elements
Apogee altitude473.337 km
Perigee altitude459.996 km
Semi-major axis6,844.804 km
Eccentricity0.0009745
Inclination53.0533°
RAAN31.4859°
Arg. of periapsis19.4124°
True anomaly340.68769°
Mean anomaly340.7246°
Eccentric anomaly340.70615°
Mean motion3.83267 °/min
BSTAR0.0028101
Orbital period93.93 mins
Loading maneuver chart data...
Loading historical data...
Loading historical data...
Loading historical data...
Loading historical data...
Loading historical data...
Loading historical data...
Loading historical data...

STARLINK-1694 Visibility forecast

Observer location: undefined°, undefined

Span
Click to sort rows by Start time (UTC) header in descending order
Start Az.
Max El. time (UTC)
Max El. Az.
Max El.
End time (UTC)
End Az.
5 mins2024-12-12 06:19:52.658Z250.784° W2024-12-12 06:21:52.658Z313.808° NW39.708°2024-12-12 06:24:52.658Z40.764° NE
4 mins2024-12-12 11:16:52.658Z355.337° N2024-12-12 11:17:52.658Z17.475° NNE19.513°2024-12-12 11:20:52.658Z74.84° E
5 mins2024-12-12 12:53:52.658Z301.366° NW2024-12-12 12:55:52.658Z256.466° W41.733°2024-12-12 12:58:52.658Z142.126° SSE
|